Location: Chattahoochee River National Recreation Area
(34.0022°N, 84.2416°W)
Time: 19:32:37
(UTC-04:00)

Daily predictions for brighter satellites

Satellite Brightness Start Highest point End
(mag) Time Altitude Azimuth Time Altitude Azimuth Time Altitude Azimuth
NOSS 3-1 (A) 3.3 20:39:44 10° SSW 20:45:15 62° ESE 20:51:19 10° NE
Resurs 1-3 4.4 20:42:53 10° SE 20:46:48 33° ENE 20:50:44 10° N
Genesis I 4.2 20:43:49 10° NW 20:47:41 49° WSW 20:51:31 10° S
Cosmos 1092 Rocket 4.0 20:42:14 10° S 20:48:20 78° E 20:54:30 10° N
DELTA 2 R/B (1) 4.4 20:43:09 10° WNW 20:48:33 47° N 20:53:58 10° ENE
HJ-1C 3.4 20:46:48 10° SSE 20:50:13 86° E 20:53:38 10° N
Cosmos 1908 Rocket 3.8 20:47:20 10° S 20:51:43 78° W 20:56:06 10° N
Cosmos 2322 Rocket 3.6 20:48:47 10° SE 20:52:06 16° E 20:55:26 10° ENE
Meteor 1-20 Rocket 4.3 20:47:21 10° S 20:52:48 55° E 20:58:10 10° NNE
H-2A ROCKET BODY 3.2 20:54:37 10° S 20:55:04 10° S 20:55:34 10° S
Cosmos 1371 Rocket 4.5 20:52:18 10° SSW 20:57:27 66° WNW 21:02:36 10° N
GPS 2-05 Rocket1 2.8 20:55:47 10° WSW 20:59:07 61° SSE 21:02:21 10° E
ALOS 3.8 20:54:50 10° SSW 20:59:09 38° W 21:03:31 10° NNW
SL-16 R/B 3.4 20:56:37 10° SE 21:00:29 19° E 21:04:22 10° ENE
Cosmos 1441 Rocket 3.5 20:59:50 10° N 21:03:25 43° E 21:06:58 10° SSE
Cosmos 405 Rocket 2.6 21:02:10 10° N 21:05:59 81° E 21:09:53 10° S
Resurs 01 Rocket 1.6 21:05:53 10° SSE 21:10:18 71° ENE 21:14:45 10° N
Spot 2 Rocket 3.5 21:10:01 10° SSE 21:15:04 69° ENE 21:20:09 10° N
NOSS 3-1 (C) 4.2 21:10:41 10° SW 21:16:12 53° NW 21:22:19 10° NNE
Atlas Centaur 2 2.9 21:11:21 10° WSW 21:19:19 60° S 21:24:56 15° E
Cosmos 1782 Rocket 4.1 21:17:54 10° SSW 21:22:11 60° W 21:26:28 10° N
Iridium 30 3.9 21:20:36 10° S 21:23:18 74° E 21:26:34 10° N
CZ-2D R/B 3.7 21:20:35 10° S 21:24:25 62° W 21:28:15 10° NNW
CZ-4C R/B 3.1 21:17:00 10° NNW 21:24:28 85° WSW 21:32:33 10° SSE
Cosmos 2227 Rocket 3.8 21:19:39 10° NW 21:24:42 34° WSW 21:29:45 10° SSW
SeaSat 1 2.9 21:20:37 10° NNE 21:25:31 66° WNW 21:30:23 10° SW
Cosmos 1140 Rocket 4.5 21:21:39 10° N 21:26:10 29° ENE 21:28:44 20° ESE
Cosmos 1980 Rocket 2.5 21:23:16 10° SSW 21:28:50 70° WNW 21:34:26 10° NNE
Cosmos 2151 Rocket 3.7 21:27:17 10° SSE 21:31:30 48° E 21:35:45 10° NNE
Meteor 1-29 4.2 21:31:35 10° NE 21:33:54 23° E 21:33:54 23° E
Cosmos 1300 Rocket 4.5 21:33:26 24° ESE 21:34:29 27° E 21:38:07 10° NNE
Cosmos 44 Rocket 4.1 21:31:23 10° N 21:35:42 33° NE 21:37:43 24° E
Tiangong 1 3.6 21:34:27 10° NW 21:36:09 15° N 21:37:50 10° NNE
Cosmos 1655 Rocket 4.0 21:30:18 10° S 21:36:33 84° E 21:42:53 10° N
BREEZE-M DEB (TANK) 2.9 21:34:44 10° WSW 21:37:18 58° NNW 21:43:15 10° NE
Cosmos 921 Rocket 3.9 21:35:29 10° SSW 21:39:33 49° WNW 21:43:37 10° N
USA 186 2.8 21:37:48 10° S 21:40:57 47° W 21:44:12 10° NNW
Cosmos 2026 Rocket 4.5 21:35:44 10° SSW 21:41:57 65° W 21:48:19 10° N
Cosmos 1975 Rocket 3.7 21:38:30 10° NNW 21:42:54 57° W 21:47:14 10° S
Envisat 3.0 21:38:50 10° S 21:43:54 81° W 21:49:00 10° NNW
YAOGAN 6 2.8 21:44:06 37° ESE 21:45:01 47° ENE 21:48:27 10° N
ERBS 3.5 21:42:42 10° WSW 21:46:02 45° NW 21:49:24 10° NNE
GOES 2 Rocket 4.2 21:42:33 10° WSW 21:47:06 32° SSW 21:48:36 25° SSE
ERS-1 Rocket 3.9 21:45:59 26° E 21:47:16 29° ENE 21:51:33 10° N
Meteor 1-11 Rocket 3.8 21:42:08 10° S 21:47:56 62° E 21:53:40 10° NNE
Cosmos 1633 3.8 21:44:47 10° SSW 21:48:12 43° W 21:51:41 10° N
Cosmos 2227 4.1 21:53:34 10° NNW 21:59:12 70° ENE 22:01:40 34° SE
Cosmos 1939 Rocket 3.2 21:59:35 25° S 22:01:50 64° W 22:05:48 10° NNW
NOSS 2-3 (D) 3.7 21:58:28 10° SSW 22:02:55 56° ESE 22:07:51 10° NE
Helios 1B rocket 2.3 22:00:39 10° NNE 22:04:46 87° WNW 22:07:26 21° SSW
Cosmos 1536 Rocket 3.4 22:02:47 10° N 22:07:07 74° E 22:08:01 53° SSE
Cosmos 1536 2.7 22:15:57 66° S 22:16:30 89° E 22:20:35 10° N
SEDSat Delta rocket 4.4 22:12:56 10° W 22:19:17 45° SSW 22:20:45 39° SSE
Cosmos 1850 Rocket 4.2 22:15:59 10° N 22:21:12 52° ENE 22:21:38 51° E
Cosmos 883 Rocket 4.4 22:18:49 10° N 22:24:53 63° E 22:26:09 52° SE
Lacrosse 5 rocket 1.8 22:21:38 10° NNW 22:24:42 48° N 22:24:42 48° N
Meteor 1-23 Rocket 4.2 22:20:31 10° N 22:26:01 58° E 22:26:29 56° ESE
MetOp-A 4.0 22:27:45 61° ESE 22:28:24 68° ENE 22:33:43 10° N
ATLAS 2AS CENTAUR R/B 2.9 22:21:21 10° SSW 22:28:47 71° ESE 22:36:48 10° NE
Helios 1A 3.8 22:28:44 39° SW 22:29:44 48° W 22:33:51 10° NNW
Cosmos 44 3.1 22:27:24 10° NNW 22:31:52 73° WSW 22:31:59 72° SW
Intelsat 5-1 Rocket 4.1 22:16:57 10° WSW 22:33:11 42° S 22:34:41 39° SSE
DELTA 2 R/B (1) 3.5 22:29:49 10° WNW 22:35:27 76° NNE 22:36:11 65° ENE
Cosmos 2322 Rocket 2.8 22:29:58 10° SW 22:35:34 57° WNW 22:41:11 10° NNE
BREEZE-M DEB (TANK) 4.4 22:34:12 10° WNW 22:38:56 72° SW 22:45:26 36° SE
NOSS 2-3 (E) 4.3 22:35:37 10° SW 22:40:08 59° WNW 22:45:16 10° NNE
ARGOS 3.0 22:41:52 73° ENE 22:41:53 73° ENE 22:47:13 10° N
SL-16 R/B 3.1 22:38:42 10° SW 22:44:07 47° WNW 22:49:37 10° N
Cosmos 2263 Rocket 2.3 22:38:42 10° NNW 22:44:12 59° ENE 22:44:12 59° ENE
Cosmos 2315 Rocket 3.8 22:45:49 10° N 22:52:04 78° E 22:52:23 76° ESE
Terra 3.8 22:57:52 19° NNE 22:57:52 19° NNE 22:59:43 10° NNE
Nadezhda 2 Rocket 4.4 22:58:14 68° SSW 22:59:01 81° W 23:05:13 10° N
Okean 1 Rocket 4.3 23:01:25 38° WNW 23:01:25 38° WNW 23:05:21 10° N
H-2A R/B 2.5 23:03:03 52° N 23:03:03 52° N 23:06:55 10° N
Atlas Centaur 2 2.8 23:01:25 10° W 23:07:34 55° SW 23:07:34 55° SW
Cosmos 2360 Rocket 2.5 23:12:28 61° NNW 23:12:28 61° NNW 23:17:13 10° NNE
Cosmos 1607 4.1 23:11:42 10° NNW 23:17:31 68° NNE 23:17:31 68° NNE
Aureole 3 Rocket 4.4 23:11:38 10° N 23:20:06 72° ENE 23:20:06 72° ENE
Cosmos 1238 Rocket 4.3 23:13:38 10° N 23:19:27 64° NNE 23:19:27 64° NNE
SPOT 5 4.2 23:27:38 38° WNW 23:27:38 38° WNW 23:31:01 10° NNW
USA 238 DEB 4.4 23:22:59 10° NNW 23:29:14 43° NE 23:29:14 43° NE
USA 238 4.4 23:23:06 10° NNW 23:29:21 43° NE 23:29:21 43° NE
Lacrosse 5 4.2 23:41:51 16° NNE 23:41:51 16° NNE 23:42:57 10° NNE
